Location: ???? ????????
(44.2382°N, 135.4003°E)
Time: 17:38:07
(UTC+00:00)

Daily predictions for brighter satellites

Satellite Brightness Start Highest point End
(mag) Time Altitude Azimuth Time Altitude Azimuth Time Altitude Azimuth
Cosmos 1933 4.2 12:02:49 10° SSW 12:06:32 46° WNW 12:10:16 10° N
BREEZE-M DEB (TANK) 4.3 12:03:27 10° W 12:11:15 44° N 12:13:57 10° ENE
DELTA 2 R/B (1) 4.0 12:06:17 10° SW 12:11:23 38° SSE 12:14:43 20° ESE
Okean 1 4.3 12:16:02 25° E 12:16:11 25° E 12:19:17 10° NNE
Cosmos 2181 Rocket 4.4 12:14:49 24° SSE 12:18:16 46° E 12:24:18 10° NNE
Cosmos 158 Rocket 4.4 12:13:53 10° SSW 12:19:08 66° WNW 12:24:30 10° NNE
Cosmos 2084 Rocket 3.3 12:17:29 10° SSW 12:21:43 62° SE 12:25:55 10° NE
ARIANE 6 FM1 Upper Stage 4.0 12:18:59 10° WSW 12:22:47 41° NW 12:26:38 10° NNE
Cosmos 1980 Rocket 2.9 12:20:40 10° NNW 12:25:58 41° ENE 12:28:45 25° ESE
Cosmos 1900 4.4 12:21:01 10° NNW 12:26:10 81° ENE 12:28:33 32° SE
Meteor 1-26 Rocket 4.3 12:22:16 15° S 12:27:13 89° E 12:33:15 10° N
Meteor 2-2 Rocket 4.5 12:23:42 10° SSW 12:29:35 75° W 12:35:37 10° N
USA 245 4.1 12:29:21 25° SSW 12:31:31 53° W 12:36:20 10° NNW
Cosmos 1743 4.4 12:29:06 10° NW 12:31:55 24° W 12:34:04 14° SW
Cosmos 1356 Rocket 3.2 12:31:05 35° S 12:32:43 77° E 12:36:51 10° NNE
Cosmos 2366 rocket 4.0 12:27:54 10° N 12:34:18 79° E 12:37:47 29° SSE
ATLAS 3B R/B 4.1 12:34:17 20° ESE 12:34:47 20° ESE 12:39:57 10° ENE
SL-16 R/B 4.4 12:32:45 10° N 12:35:58 15° NE 12:39:09 10° ENE
Cosmos 2208 Rocket 4.0 12:33:20 21° S 12:37:02 76° ESE 12:42:22 10° NNE
ISS -2.3 12:34:12 10° NW 12:37:19 34° NNE 12:38:46 23° ENE
BREEZE-M R/B 4.2 12:21:16 10° WNW 12:37:48 69° N 12:41:17 17° E
Terra 3.3 12:36:51 13° SSW 12:40:25 30° W 12:44:32 10° NW
CZ-4C R/B 4.0 12:34:28 10° NW 12:41:18 38° WSW 12:47:12 17° S
SL-24 R/B 4.1 12:37:17 10° NNE 12:41:36 67° ESE 12:43:06 40° S
SL-8 Rocket 4.0 12:36:56 10° N 12:43:07 81° W 12:46:34 28° S
Cosmos 1812 Rocket 3.4 12:44:02 39° S 12:45:35 88° E 12:49:55 10° N
Cosmos 864 Rocket 4.5 12:40:10 10° N 12:46:29 86° W 12:49:51 30° S
Meteor 2-10 4.1 12:41:03 10° N 12:46:46 80° E 12:49:04 37° SSE
Meteor 1-14 Rocket 4.4 12:43:26 10° N 12:49:00 61° ENE 12:51:07 37° SE
Cosmos 1125 Rocket 4.0 12:45:28 10° NNW 12:50:37 52° WSW 12:53:00 29° SSW
Cosmos 1733 4.2 12:51:11 10° NNW 12:53:53 28° W 12:54:26 26° WSW
Cosmos 1697 Rocket 3.1 12:52:51 10° NNW 12:58:22 55° WSW 13:00:41 33° S
Ariane Rocket 3.5 12:56:33 30° SSW 12:58:49 52° W 13:03:47 10° NNW
Cosmos 1315 Rocket 2.8 13:00:43 50° SW 13:01:35 71° WNW 13:05:29 10° N
Cosmos 1805 3.2 12:59:02 10° N 13:02:12 56° ENE 13:02:12 56° ENE
Meteor 2-6 Rocket 4.2 12:59:35 30° S 13:02:37 87° W 13:08:24 10° N
Cosmos 2341 Rocket 4.4 12:57:14 10° NNW 13:03:19 56° W 13:06:50 25° SSW
Cosmos 2298 Rocket 4.0 12:58:40 10° NNW 13:04:02 87° ENE 13:05:38 47° SSE
ATLAS CENTAUR R/B 4.1 13:05:48 10° W 13:08:24 18° NW 13:11:04 10° N
Cosmos 2369 4.0 13:04:32 10° NNW 13:10:08 57° ENE 13:11:58 39° ESE
DELTA 2 DEB (DPAF) 3.7 13:06:31 10° NNE 13:10:29 87° WNW 13:10:54 71° SSW
BREEZE-M DEB (TANK) 4.5 12:54:27 10° W 13:11:16 61° N 13:15:36 11° E
Cosmos 44 3.8 13:08:28 10° NW 13:12:49 43° WSW 13:13:40 39° SW
Timation 1 Rocket 4.5 13:12:08 44° SSE 13:13:30 53° ESE 13:19:18 10° NE
Cosmos 2082 Rocket 2.1 13:13:18 44° S 13:15:05 71° ESE 13:20:42 10° NNE
NOSS 3-1 (C) 4.2 13:10:58 10° WSW 13:15:32 42° NW 13:21:02 10° NNE
Cosmos 1867 4.0 13:11:36 10° NW 13:16:52 50° WSW 13:18:12 41° SSW
ARIANE 5 R/B 3.6 13:16:52 32° E 13:17:20 32° ENE 13:21:14 10° N
Cosmos 2239 Rocket 4.5 13:11:41 10° N 13:17:53 68° E 13:19:49 44° SE
USA 59 Rocket 1.9 13:21:04 12° NE 13:21:04 12° NE 13:21:22 10° NE
SeaSat 1 2.4 13:18:29 54° S 13:19:33 74° WSW 13:24:29 10° NNW
Cosmos 1842 Rocket 4.2 13:20:42 38° E 13:20:42 38° E 13:24:24 10° NNE
Cosmos 2150 Rocket 4.2 13:15:13 10° NNW 13:20:35 67° WSW 13:22:02 47° SSW
BlueWalker 3 2.4 13:17:37 10° WNW 13:20:32 48° W 13:20:32 48° W
Cosmos 1238 Rocket 3.7 13:21:38 35° WSW 13:22:18 38° W 13:25:31 10° N
Cosmos 1975 4.2 13:19:43 10° NNE 13:22:24 25° ENE 13:22:24 25° ENE
Meteor 1-10 Rocket 4.2 13:22:12 47° S 13:23:59 76° E 13:29:51 10° NNE
CZ-4C R/B 3.4 13:25:05 10° NNE 13:28:06 59° NNE 13:28:06 59° NNE
COSMOS 2406 3.2 13:29:16 53° SSE 13:30:09 59° ESE 13:35:45 10° NNE
CZ-2C R/B 3.9 13:29:27 10° NNE 13:33:29 51° E 13:33:29 51° E
Cosmos 2221 3.8 13:35:37 28° WSW 13:36:54 34° WNW 13:40:44 10° N
Lacrosse 5 rocket 3.3 13:35:25 10° WNW 13:36:37 16° W 13:36:37 16° W
Cosmos 1821 Rocket 4.4 13:33:48 10° NNW 13:39:43 54° W 13:41:55 36° SSW
Meteor 2-13 Rocket 4.5 13:38:58 50° SSE 13:40:21 64° E 13:46:26 10° NNE
COBE Rocket 4.2 13:37:41 10° N 13:42:47 69° WNW 13:44:10 47° SW
Cosmos 2333 Rocket 3.8 13:38:26 10° N 13:43:14 27° NE 13:45:58 19° E
Cosmos 1536 3.6 13:39:53 10° NNW 13:43:20 39° W 13:43:20 39° W
Cosmos 1766 4.3 13:40:42 10° N 13:43:04 33° NE 13:43:04 33° NE
NOSS 3-1 (A) 3.6 13:41:24 19° WSW 13:44:44 56° NW 13:50:24 10° NNE
Okean 3 Rocket 3.6 13:48:31 10° N 13:52:49 69° ENE 13:52:49 69° ENE
Meteor 2-9 Rocket 4.4 13:48:05 10° NNW 13:53:41 65° W 13:54:56 51° SSW
Cosmos 405 Rocket 3.6 13:52:43 10° NNW 13:55:06 42° NNW 13:55:06 42° NNW
Cosmos 1766 Rocket 4.1 13:52:44 10° NNW 13:56:57 47° W 13:57:04 47° W
DELTA 2 R/B (1) 4.3 13:51:55 10° WSW 13:55:28 37° SW 13:55:28 37° SW
Meteor 1-27 Rocket 3.6 13:59:03 60° SSW 14:00:08 85° W 14:05:43 10° N
Cosmos 2219 Rocket 4.4 13:56:38 10° N 14:00:29 18° NE 14:04:19 10° E
Landsat 5 3.6 13:56:46 10° NNE 14:00:29 66° NE 14:00:29 66° NE
Meteor 2-4 Rocket 3.8 14:00:43 54° ESE 14:01:19 57° E 14:06:59 10° NNE
MetOp-A 3.9 14:01:57 70° SSW 14:02:27 78° WSW 14:07:39 10° NNW
Meteor 2-15 4.3 13:59:46 10° N 14:05:55 86° E 14:07:08 60° SSE
Cosmos 1980 Rocket 3.2 14:04:55 10° NW 14:09:47 31° WSW 14:10:29 30° WSW
ALOS 2 2.8 14:12:48 63° ENE 14:12:48 63° ENE 14:16:59 10° N
ISS -1.1 14:10:56 10° WNW 14:11:41 15° WNW 14:11:41 15° WNW
Cosmos 1151 Rocket 3.9 14:16:08 40° ENE 14:16:08 40° ENE 14:19:24 10° NNE
Meteor 1-11 Rocket 4.4 14:15:00 10° NNW 14:20:08 41° W 14:21:04 38° WSW
Meteor 1-16 4.5 14:14:39 10° N 14:20:10 89° W 14:20:46 72° S
SL-16 R/B 2.2 14:15:23 10° NNW 14:21:04 75° ENE 14:21:58 62° ESE
Meteor 2-15 Rocket 4.3 14:16:28 10° N 14:22:37 85° E 14:23:42 62° SSE
ATLAS 3B R/B 2.8 14:21:28 41° SSW 14:24:28 89° SE 14:32:20 10° NE
USA 229 DEB 3.3 14:23:54 61° SSE 14:24:29 64° ESE 14:31:00 10° NE
USA 229 3.4 14:24:02 61° SSE 14:24:35 64° ESE 14:31:05 10° NE
CENTAUR R/B 3.9 14:20:24 10° NNW 14:28:21 52° NE 14:36:17 14° ESE
Cosmos 2237 4.2 14:24:04 10° NNW 14:29:43 66° WSW 14:30:09 63° SW
Cosmos 1538 Rocket 3.9 14:29:30 69° WSW 14:29:59 75° WNW 14:35:10 10° NNE
Cosmos 2322 Rocket 2.7 14:24:42 10° NNW 14:30:16 54° ENE 14:31:34 44° ESE
Cosmos 1066 Rocket 4.1 14:35:33 66° SE 14:36:02 70° E 14:41:45 10° NNE
Cosmos 1934 Rocket 4.4 14:30:09 10° NNW 14:36:11 51° W 14:37:31 44° SW
Sich 1 3.4 14:32:12 10° NNW 14:35:47 57° NW 14:35:47 57° NW
Cosmos 1535 Rocket 4.5 14:32:29 10° NNW 14:38:49 74° W 14:39:58 59° SSW
PSLV R/B 3.8 14:35:58 10° NNE 14:39:27 61° NNE 14:39:27 61° NNE
Spot 4 4.3 14:41:50 50° W 14:41:50 50° W 14:46:17 10° NNW
Meteor 1-18 Rocket 4.1 14:42:21 70° S 14:43:03 85° E 14:48:58 10° NNE
Meteor 2-8 Rocket 4.3 14:37:18 10° N 14:43:31 86° W 14:44:33 64° S
Cosmos 2278 3.6 14:41:25 10° NNW 14:47:02 70° WSW 14:47:22 68° SW
Cosmos 1500 Rocket 4.0 14:44:54 10° NNW 14:48:39 55° WNW 14:48:39 55° WNW
Cosmos 2360 Rocket 2.4 14:44:32 10° NNW 14:50:08 64° ENE 14:51:12 53° ESE
Cosmos 1605 Rocket 4.0 14:44:43 10° NNW 14:51:00 68° W 14:52:06 57° SW
ARIANE 5 R/B 4.2 14:54:16 24° W 14:54:16 24° W 14:57:16 10° NW
H-2A R/B 4.3 14:53:29 21° ENE 14:53:47 21° ENE 14:56:47 10° NNE
Cosmos 1633 Rocket 4.1 14:52:09 10° N 14:56:06 37° ENE 14:56:06 37° ENE
Cosmos 2082 Rocket 4.3 14:55:32 10° W 14:59:44 21° NW 15:03:57 10° N
In-Cosmos 22 4.5 15:03:16 52° ESE 15:03:53 54° E 15:09:30 10° NNE
Cosmos 1805 Rocket 4.4 15:00:57 10° NNW 15:04:35 40° WNW 15:04:35 40° WNW
Celestis-02/Orion 38 4.4 15:05:07 79° SE 15:05:28 89° ENE 15:10:35 10° NNW
USA 59 Rocket 2.1 15:06:56 13° NW 15:07:31 13° NW 15:09:05 10° N
ASTEX 1 3.3 15:04:18 10° N 15:09:15 83° W 15:09:20 82° WSW
GP-B 3.3 15:06:34 10° N 15:10:30 63° NW 15:10:30 63° NW
Cosmos 1328 Rocket 3.8 15:18:38 63° NE 15:18:38 63° NE 15:22:25 10° NNE
Cosmos 2112 Rocket 3.8 15:19:58 78° SSE 15:20:12 81° ESE 15:25:27 10° NNE
Cosmos 1153 Rocket 4.4 15:14:28 10° NNW 15:20:40 68° W 15:21:40 58° SW
Exosat Rocket 4.1 15:17:49 10° NW 15:22:12 43° W 15:22:12 43° W
Cosmos 1420 Rocket 3.9 15:17:17 10° NNW 15:22:35 72° WSW 15:22:41 72° WSW
Cosmos 2333 Rocket 2.3 15:22:17 10° NNW 15:27:52 55° WSW 15:27:57 55° WSW
Cosmos 1758 4.2 15:27:21 10° N 15:30:31 43° NE 15:30:31 43° NE
Cosmos 1727 Rocket 4.2 15:35:18 49° SW 15:36:39 59° WNW 15:42:48 10° N
Cosmos 2219 Rocket 2.0 15:39:31 10° NNW 15:45:10 84° WSW 15:46:01 65° S
Cosmos 2333 4.1 15:40:21 10° NNW 15:45:56 62° WSW 15:46:16 61° SW
Cosmos 2016 Rocket 4.0 15:42:05 10° N 15:48:16 74° E 15:50:08 47° SSE
Cosmos 494 Rocket 3.8 15:48:15 75° SW 15:48:41 86° WNW 15:53:51 10° NNE
CZ-2C R/B 2.7 15:50:42 49° SE 15:51:55 67° ENE 15:57:03 10° N
Cosmos 2100 Rocket 4.1 15:47:15 10° NNW 15:53:28 60° W 15:54:41 51° SW
Cosmos 1241 Rocket 4.4 15:48:50 10° NW 15:55:19 74° WSW 15:56:56 52° S
Cosmos 1666 Rocket 4.5 15:53:24 10° NNW 15:56:53 36° WNW 15:56:53 36° WNW
SL-14 R/B 3.8 15:58:46 50° NW 15:58:46 50° NW 16:01:57 10° N
Cosmos 2297 Rocket 3.7 15:57:04 22° SE 15:58:31 25° ESE 16:03:01 10° NE
Cosmos 1680 Rocket 4.3 15:58:34 35° W 15:59:42 40° WNW 16:04:37 10° N
Cosmos 1048 Rocket 3.9 15:59:19 64° SSE 15:59:51 70° ESE 16:04:57 10° NNE
IRIDIUM 103 4.4 15:59:02 56° SE 16:00:00 69° E 16:05:12 10° N
Cosmos 1802 Rocket 4.0 15:56:40 10° NNW 16:03:00 74° W 16:04:41 51° SSW
SL-16 R/B 4.0 16:01:02 10° WNW 16:03:47 16° W 16:03:47 16° W
Cosmos 1371 Rocket 4.4 15:59:21 10° NNW 16:04:29 48° WSW 16:04:31 48° WSW
Cosmos 1953 3.8 16:03:33 10° NNE 16:06:41 26° ENE 16:07:24 24° E
Cosmos 1459 Rocket 4.2 16:02:05 10° NNW 16:07:59 51° W 16:09:11 45° SW
Cosmos 1437 Rocket 3.6 16:08:51 39° ENE 16:08:51 39° ENE 16:11:44 10° NNE
Meteor 1-22 Rocket 4.0 16:04:35 10° NNW 16:09:58 76° W 16:10:50 61° SSW
Cosmos 2056 Rocket 4.1 16:05:12 10° NW 16:10:01 41° W 16:10:01 41° W
Cosmos 1455 4.3 16:08:53 10° NNW 16:09:26 14° NW 16:09:26 14° NW
Cosmos 2322 Rocket 3.6 16:09:29 10° NW 16:13:20 23° W 16:13:20 23° W
ATLAS 3B R/B 4.5 16:09:41 10° W 16:16:15 31° NNW 16:23:05 10° NNE
Cosmos 1331 Rocket 4.0 16:11:59 10° NNW 16:17:11 74° ENE 16:18:57 41° SE
Cosmos 1725 Rocket 4.0 16:11:54 10° NNW 16:18:01 65° W 16:19:40 47° SSW
IRIDIUM 106 4.2 16:17:18 60° SSW 16:18:17 82° W 16:23:33 10° N
COSMOS 2428 2.8 16:13:31 10° NNW 16:19:16 74° ENE 16:22:18 29° SE
CENTAUR R/B 3.5 16:11:06 10° NW 16:19:21 54° WSW 16:23:18 34° S
Cosmos 2227 Rocket 4.2 16:21:11 13° SE 16:23:54 18° E 16:27:37 10° ENE
Meteor 1-15 Rocket 4.2 16:18:41 10° NNW 16:24:31 70° W 16:26:00 49° SSW
Cosmos 1470 Rocket 4.4 16:21:30 10° NNW 16:25:01 35° WNW 16:25:01 35° WNW
NOSS 0 Rocket 4.3 16:19:56 10° NNW 16:26:08 63° ENE 16:31:55 12° SE
H-2A R/B 3.6 16:28:52 29° WNW 16:28:52 29° WNW 16:31:32 10° NNW
Cosmos 921 Rocket 3.8 16:31:23 35° SE 16:32:02 38° ESE 16:35:54 10° NNE
Meteor 1-12 Rocket 4.2 16:26:39 10° N 16:32:21 85° E 16:34:44 37° SSE
Cosmos 44 Rocket 3.6 16:28:04 10° NNW 16:32:52 63° NE 16:37:05 14° SE
USA 267 4.3 16:27:25 10° ENE 16:33:05 31° SE 16:35:16 25° SSE
Cosmos 2360 Rocket 3.8 16:29:41 10° NW 16:32:55 19° W 16:32:55 19° W
Meteor 2-16 Rocket 4.4 16:32:00 43° S 16:34:10 89° WNW 16:40:18 10° N
IDEFIX/ARIANE 42P 2.7 16:29:56 10° NNE 16:35:10 66° ESE 16:36:54 41° SSE
Cosmos 1933 Rocket 3.6 16:32:46 10° NNW 16:37:09 59° W 16:37:26 58° WSW
Meteor 1-21 4.1 16:35:42 46° S 16:37:28 89° WNW 16:43:07 10° N
GEOS 3 Rocket 3.6 16:37:48 49° SSW 16:38:40 56° WSW 16:43:43 10° NW
Resurs 1-4 Rocket 3.3 16:34:49 10° NNE 16:39:33 33° E 16:42:19 20° SE
Cosmos 2233 Rocket 4.0 16:33:32 10° NNW 16:39:41 65° W 16:41:55 40° SSW
Meteor 2-21 Rocket 4.5 16:38:46 41° SSW 16:40:57 69° W 16:47:10 10° N
CZ-2C R/B 3.8 16:41:25 10° N 16:46:59 49° WNW 16:49:01 34° WSW
USA 281 3.8 16:42:46 10° NE 16:49:07 49° ESE 16:52:44 25° S
Cosmos 1869 Rocket 3.5 16:45:15 10° NNW 16:49:41 68° W 16:50:29 55° SSW
Cosmos 1892 4.1 16:52:30 20° ESE 16:53:12 22° E 16:55:40 10° NE
NPP 3.6 16:49:07 10° NNE 16:54:32 83° ESE 16:56:47 37° S
NOSS 3-2 (A) 4.3 16:49:25 10° NW 16:56:52 54° WSW 17:04:22 15° S
Cosmos 614 Rocket 4.0 16:55:36 40° S 16:57:30 79° ESE 17:02:43 10° NNE
Cosmos 2346 Rocket 4.5 16:55:17 36° SSW 16:58:02 74° W 17:04:20 10° N
Tiangong -0.6 17:00:36 27° ESE 17:00:36 27° ESE 17:02:21 10° E
Cosmos 2061 Rocket 4.4 16:55:36 10° NNW 17:01:40 46° W 17:04:04 32° SW
Okean 2 3.1 17:03:12 54° SSW 17:04:03 87° W 17:08:00 10° N
Cosmos 2237 Rocket 2.4 16:59:36 10° NNW 17:05:15 70° ENE 17:10:53 10° SSE
ADEOS II 3.2 17:00:39 10° NNE 17:05:29 37° E 17:09:12 16° SSE
H-2A R/B 1.8 17:02:01 10° N 17:06:07 77° WNW 17:07:09 48° SSW
NOSS 2-2 (C) 3.7 17:04:47 10° NW 17:09:00 84° SW 17:14:59 10° SSE
CZ-2D R/B 2.5 17:06:29 10° NNE 17:11:54 60° ESE 17:15:18 23° S
Cosmos 1733 Rocket 3.1 17:08:44 10° N 17:13:11 81° E 17:15:38 26° SSE
Cosmos 1862 Rocket 3.6 17:13:06 33° S 17:15:01 78° E 17:19:30 10° N
Cosmos 2228 Rocket 3.2 17:12:55 31° S 17:15:03 74° E 17:19:37 10° NNE
Meteor 1-16 Rocket 4.3 17:10:55 10° NNW 17:16:11 53° W 17:18:37 30° SSW
Cosmos 2263 Rocket 4.0 17:12:15 10° SSE 17:16:38 24° ESE 17:21:03 10° NE
Cosmos 2322 4.4 17:14:07 10° NW 17:19:08 32° WSW 17:20:27 29° SW
ALOS 3.2 17:16:14 10° NNE 17:20:35 43° E 17:23:46 17° SSE
Cosmos 1461 4.3 17:22:12 19° SSE 17:23:48 25° ESE 17:27:00 10° ENE
MOZ.5/SAFIR/RUBIN 5/SL-8 4.1 17:25:05 32° SW 17:26:38 44° W 17:31:05 10° NNW
Cosmos 2219 Rocket 4.1 17:26:17 10° WNW 17:27:41 12° W 17:27:41 12° W
SAR-Lupe-3 3.9 17:29:17 54° SSW 17:29:47 70° WSW 17:32:44 10° NNW
Cosmos 1703 2.9 17:29:48 43° SW 17:30:44 66° W 17:34:11 10° N
Cosmos 1452 Rocket 4.4 17:26:53 10° NW 17:31:19 28° W 17:32:31 26° WSW
Cosmos 2034 Rocket 4.3 17:26:06 10° N 17:32:16 67° E 17:38:23 10° SSE
CZ-2C R/B 4.2 17:32:08 16° W 17:32:38 16° W 17:35:46 10° NW
MSX 4.3 17:27:52 10° N 17:33:22 47° WNW 17:36:33 24° SW
BREEZE-M R/B 3.5 17:34:05 17° WNW 17:36:04 61° SSW 17:44:22 10° SE
SL-16 R/B 3.6 17:35:22 10° NNW 17:40:43 41° ENE 17:46:02 10° SE
Cosmos 1953 3.6 17:39:04 10° NW 17:41:48 20° W 17:41:57 20° W
Cosmos 2297 Rocket 2.6 17:38:51 23° SW 17:42:10 52° WNW 17:47:43 10° NNE
Cosmos 1464 Rocket 4.0 17:37:34 10° NNW 17:43:56 69° W 17:49:46 12° S
Aureole 3 Rocket 3.1 17:40:13 10° NNW 17:44:23 45° W 17:45:47 29° SW
USA 276 2.9 17:48:42 27° S 17:49:23 31° SE 17:52:03 10° ENE
SL-16 R/B 3.1 17:43:22 10° SSE 17:49:23 60° ENE 17:55:27 10° N
NOSS 3-2 (C) 4.3 17:42:45 10° NW 17:50:10 53° WSW 17:58:48 10° SSE
Cosmos 1174 4.1 17:51:23 25° WSW 17:53:21 56° NW 17:57:45 10° NNE
NOAA 11 4.3 17:48:03 10° NNE 17:53:35 82° ESE 17:58:29 13° SSW
Cosmos 2219 4.1 17:50:10 10° S 17:55:31 44° ESE 18:00:56 10° NE
USA 238 DEB 4.0 17:51:10 10° NW 17:58:39 87° NE 18:06:43 10° SE
USA 238 4.1 17:51:16 10° NW 17:58:45 87° NE 18:06:50 10° SE
Cosmos 1703 Rocket 3.8 17:55:20 12° S 17:59:22 72° E 18:03:47 10° NNE
H-2A R/B 3.6 17:54:41 10° NNE 17:59:37 34° E 18:04:30 10° SSE
COSMOS 2428 4.2 17:59:15 10° WNW 18:02:48 17° W 18:04:13 16° WSW
RESURS DK-1 4.1 18:02:08 10° SSE 18:05:29 26° ESE 18:08:51 10° NE
Cosmos 2227 Rocket 2.3 18:02:59 17° SW 18:07:18 68° WNW 18:12:57 10° NNE
OAO 2 Rocket 4.4 18:06:49 17° SW 18:09:38 28° S 18:14:03 10° SE
Cosmos 2084 3.3 18:08:04 18° SW 18:11:11 88° SE 18:15:20 10° NE
Cosmos 1980 4.4 18:06:54 10° NW 18:11:54 33° WSW 18:16:53 10° SSW
Aureole 3 4.1 18:09:48 10° SSE 18:12:52 44° E 18:16:28 10° NNE
Milstar 3 4.2 18:06:57 15° SW 18:12:53 26° S 18:18:41 10° SE
IDEFIX/ARIANE 42P 4.3 18:10:33 10° NNW 18:14:06 19° WNW 18:17:36 10° WSW
Meteor 2-17 Rocket 4.4 18:08:49 10° S 18:14:55 86° W 18:21:02 10° N
USA 267 3.3 18:09:57 10° NE 18:16:30 81° NW 18:22:37 12° WSW
NOSS 2-2 (E) 4.3 18:14:35 10° NW 18:18:43 40° WSW 18:24:21 10° S
Resurs 1-4 Rocket 3.0 18:14:35 10° N 18:19:17 34° WNW 18:23:22 13° SW
Cosmos 1269 Rocket 4.0 18:15:50 12° SSW 18:20:40 79° WNW 18:25:58 10° NNE
Tsikada Rocket 4.0 18:16:15 10° SSW 18:22:24 74° W 18:28:34 10° N
Cosmos 1300 Rocket 3.8 18:19:45 10° N 18:24:05 73° E 18:28:25 10° SSE
Okean 1-7 4.1 18:21:35 14° SW 18:24:27 28° WNW 18:28:07 10° NNW
Cosmos 2082 4.3 18:19:38 10° S 18:25:09 57° ESE 18:30:45 10° NNE
Cosmos 1892 4.1 18:24:45 12° WSW 18:26:08 16° WNW 18:28:06 10° NNW
Cosmos 2279 Rocket 4.4 18:21:36 10° N 18:27:47 66° E 18:33:54 10° SSE
Cosmos 1634 Rocket 4.0 18:23:18 10° N 18:29:40 83° W 18:35:58 10° S
H-2A R/B 3.3 18:26:02 10° NNE 18:29:57 84° ESE 18:33:50 10° SSW
CZ-2C R/B 3.3 18:28:23 10° NNE 18:32:49 44° E 18:37:09 10° S
USA 281 4.1 18:27:32 10° N 18:33:26 37° NW 18:39:19 10° WSW
Envisat 3.3 18:28:38 10° N 18:33:32 50° WNW 18:38:23 10° SW
Meteor 1-28 Rocket 3.0 18:32:19 10° S 18:35:41 59° W 18:39:05 10° NNW
NOSS 3-4 (A) 3.7 18:30:41 11° WSW 18:35:41 52° NW 18:41:28 10° NNE
NOSS 3-4 (C) 3.6 18:30:54 11° WSW 18:35:53 52° NW 18:41:40 10° NNE
Tiangong -1.8 18:32:50 10° W 18:35:54 48° S 18:38:58 10° ESE
COSMOS 2455 2.9 18:31:18 10° NW 18:37:14 59° WSW 18:43:06 10° SSE
Cosmos 1908 Rocket 4.2 18:38:06 10° NNW 18:42:02 35° W 18:45:57 10° SSW
ADEOS II 3.1 18:40:23 10° N 18:44:56 31° WNW 18:49:28 10° SW
Cosmos 2237 Rocket 3.6 18:45:01 10° WNW 18:48:39 18° W 18:52:17 10° SW
USA 290 2.4 18:46:54 10° SSW 18:50:02 72° ESE 18:53:13 10° NNE
Cosmos 1140 Rocket 3.6 18:45:01 10° SSW 18:50:09 63° WNW 18:55:19 10° NNE
USA 234 3.4 18:44:45 10° SE 18:51:18 90° ENE 18:57:53 10° NW
CZ-2D R/B 3.7 18:47:22 10° NNW 18:51:25 22° WNW 18:55:28 10° WSW
Helios 1A Rocket 2.6 18:51:53 10° S 18:55:20 59° WSW 18:58:51 10° NNW
